Port Sheldon, MI

6:04 AM EDT on August 01, 2015 (GMT -0400)
Sheldon Dunes | | Change Station
CLOSE
Current Station
Personal Weather Station
Location: West Olive, MI
Elevation: 646 ft
Nearby Weather Stations

Elev 646 ft 42.94 °N, 86.21 °W | Updated 50 seconds ago

Clear
Clear
69.1 °F
Feels Like 69.1 °F
N
0.7
Wind Variable Wind from East
Gusts 2.2 mph

Today
High -- | Low -- °F
--% Chance of Precip.
Yesterday
High -- | Low -- °F
Precip. -- in
6:35 AM 9:05 PM
Full, 99% visible
Pressure 29.93 in
Visibility 10.0 miles
Clouds Clear
Dew Point 64 °F
Humidity 83%
Rainfall 0.00 in
Snow Depth Not available.
UV 0 out of 12
Pollen 7.50 out of 12
Air Quality Not available.
Flu Activity Not available.
METAR KBIV 010953Z AUTO 28005KT 10SM CLR 18/16 A2994 RMK AO2 SLP135 T01830161

More Conditions Fewer Conditions

Pressure 29.93 in
Visibility 10.0 miles
Clouds Clear
Dew Point 64 °F
Humidity 83%
Rainfall 0.00 in
Snow Depth Not available.
UV 0 out of 12
Pollen 7.50 out of 12
Air Quality Not available.
Flu Activity Not available.
METAR KBIV 010953Z AUTO 28005KT 10SM CLR 18/16 A2994 RMK AO2 SLP135 T01830161

More Conditions Fewer Conditions

10-Day Weather Forecast

×

Almanac

Astronomy

Aug. 01, 2015 Rise Set
Actual Time
Civil Twilight
Nautical Twilight
Astronomical Twilight
Moon
Length of Visible Light
Length of Day
Tomorrow will be .
, % of the Moon is Illuminated

Today's Extremes

State Highs State Lows

Community

WunderPhotos

Upload Photos

1,842,905 photos uploaded!

WunderBlogs® & News

Nearby

Air Quality

  Air Quality AQ Index Pollutant
Not available.

Snow Depth

Station Depth Elevation

Earthquake Activity

City Distance Mag. Time & Date
Minimum magnitude displayed is 2.5.

Coastal Water Temperatures

Place Temperature

Stations

Nearby Weather Stations

Station Location Temp. Windchill Dew Point Humidity Wind Precip. Elev Updated Type